This is the latest recevied weather packets stored in our database for station/object K4IR. If no packets are shown the sender has not sent any weather packets the latest 10 day(s).
| Time | Temp. | Humidity | Pressure | Rain* | Wind** | Luminosity | Snow |
|---|---|---|---|---|---|---|---|
| 1777928748 | 22.78° C | 50% | 1016.7 hPa | 0 mm | - | 350 W/m² | - |
| 1777928148 | 22.78° C | 47% | 1016.6 hPa | 0 mm | - | 378 W/m² | - |
| 1777927544 | 23.33° C | 47% | 1016.6 hPa | 0 mm | - | 412 W/m² | - |
| 1777926940 | 23.33° C | 51% | 1016.7 hPa | 0 mm | - | 445 W/m² | - |
| 1777926339 | 22.78° C | 51% | 1016.6 hPa | 0 mm | - | 475 W/m² | - |
| 1777925739 | 22.78° C | 49% | 1016.9 hPa | 0 mm | - | 504 W/m² | - |
| 1777925138 | 23.33° C | 50% | 1016.8 hPa | 0 mm | - | 530 W/m² | - |
| 1777924538 | 23.33° C | 50% | 1017 hPa | 0 mm | - | 561 W/m² | - |
| 1777923937 | 23.33° C | 48% | 1016.8 hPa | 0 mm | - | 576 W/m² | - |
| 1777923335 | 23.89° C | 48% | 1017 hPa | 0 mm | - | 616 W/m² | - |
| 1777922731 | 23.89° C | 49% | 1017.2 hPa | 0 mm | - | 615 W/m² | - |
| 1777922127 | 23.89° C | 51% | 1017.5 hPa | 0 mm | - | 659 W/m² | - |
| 1777921525 | 23.89° C | 51% | 1017.3 hPa | 0 mm | - | 674 W/m² | - |
| 1777920924 | 23.33° C | 48% | 1017.4 hPa | 0 mm | - | 708 W/m² | - |
| 1777920321 | 23.33° C | 44% | 1017.5 hPa | 0 mm | - | 711 W/m² | - |
| 1777919720 | 22.78° C | 49% | 1017.7 hPa | 0 mm | - | 728 W/m² | - |
| 1777919120 | 22.78° C | 47% | 1017.7 hPa | 0 mm | - | 689 W/m² | - |
| 1777918515 | 23.89° C | 45% | 1017.8 hPa | 0 mm | - | 759 W/m² | - |
| 1777917912 | 24.44° C | 48% | 1017.8 hPa | 0 mm | - | 771 W/m² | - |
| 1777917307 | 23.89° C | 47% | 1017.8 hPa | 0 mm | - | 768 W/m² | - |
| 1777916702 | 24.44° C | 47% | 1017.8 hPa | 0 mm | - | 771 W/m² | - |
| 1777916101 | 23.89° C | 48% | 1017.7 hPa | 0 mm | - | 789 W/m² | - |
| 1777915500 | 23.89° C | 44% | 1017.7 hPa | 0 mm | - | 792 W/m² | - |
| 1777914900 | 23.33° C | 51% | 1017.8 hPa | 0 mm | - | 790 W/m² | - |
| 1777914299 | 23.89° C | 48% | 1017.8 hPa | 0 mm | - | 781 W/m² | - |
* Rain latest hour (hover to see other rain measurements)
** Current wind speed in m/s (hover to see current wind gust speed)